Weather reports worldwide

Advertisment
Topcliffe, United Kingdom (3265): temperature & dewpoint: 09.07.2018 20:00:00 - 15.07.2018 20:00:00 (BST)Topcliffe, United Kingdom (3265): wind speed: 09.07.2018 20:00:00 - 15.07.2018 20:00:00 (BST)Topcliffe, United Kingdom (3265): wind direction: 09.07.2018 20:00:00 - 15.07.2018 20:00:00 (BST)Topcliffe, United Kingdom (3265): reduced air pressure: 09.07.2018 20:00:00 - 15.07.2018 20:00:00 (BST)Topcliffe, United Kingdom (3265): visibility: 09.07.2018 20:00:00 - 15.07.2018 20:00:00 (BST)Topcliffe, United Kingdom (3265): precipitation: 09.07.2018 20:00:00 - 15.07.2018 20:00:00 (BST)
Date & Time tt [°C] td [°C] ff [km/h] ff [kn] dd ppp [hPa] vv [km] rr [mm]
15.07.2018 20:00:00 - - - - - - - -
15.07.2018 19:00:00 25,3 13,0 16 9 W 1013,1 50 0,0
15.07.2018 18:00:00 25,5 10,9 15 8 WSW 1013,3 35 0,0
15.07.2018 17:00:00 25,8 11,2 15 8 WSW 1013,5 45 0,0
15.07.2018 16:00:00 26,1 11,4 15 8 SW 1013,8 30 0,0
15.07.2018 15:00:00 25,7 11,2 18 10 WSW 1014,0 40 0,0
15.07.2018 14:00:00 25,3 11,0 21 11 SW 1014,5 40 0,0
15.07.2018 13:00:00 24,8 10,7 18 10 SW 1014,8 50 0,0
15.07.2018 12:00:00 24,1 12,3 18 10 SW 1015,1 30 0,0
15.07.2018 11:00:00 22,9 12,1 22 12 SSW 1015,5 45 0,0
15.07.2018 10:00:00 21,7 13,5 9 5 SSW 1015,7 35 0,0
15.07.2018 09:00:00 18,8 13,3 5 3 SSW 1016,1 24 0,0
15.07.2018 08:00:00 17,6 13,2 4 2 ESE 1016,2 24 0,0
15.07.2018 07:00:00 15,3 12,8 2 1 N 1016,3 17 0,0
15.07.2018 06:00:00 13,3 11,8 4 2 WNW 1016,2 17 0,0
15.07.2018 05:00:00 12,3 10,6 4 2 NW 1016,3 14 0,0
15.07.2018 04:00:00 13,8 11,6 8 4 N 1016,5 45 0,0
15.07.2018 03:00:00 15,1 12,3 9 5 N 1016,7 30 0,0
15.07.2018 02:00:00 15,1 12,0 9 5 N 1017,0 40 0,0
15.07.2018 01:00:00 16,6 12,4 8 4 N 1017,0 40 0,0
15.07.2018 00:00:00 16,8 11,8 5 3 N 1017,0 50 0,0
14.07.2018 23:00:00 19,0 12,2 13 7 NW 1017,0 40 0,0
14.07.2018 22:00:00 20,5 10,9 9 5 NNE 1016,7 50 0,0
14.07.2018 21:00:00 22,0 11,1 8 4 N 1016,4 50 0,0
14.07.2018 20:00:00 25,1 11,8 9 5 WNW 1016,5 50 0,0
14.07.2018 19:00:00 25,4 11,1 13 7 WSW 1016,6 35 0,0
14.07.2018 18:00:00 26,0 11,4 16 9 W 1016,9 40 0,0
14.07.2018 17:00:00 25,9 11,0 16 9 W 1017,2 30 0,0
14.07.2018 16:00:00 25,9 11,5 16 9 WSW 1017,6 27 0,0
14.07.2018 15:00:00 25,9 11,5 15 8 WSW 1018,0 45 0,0
14.07.2018 14:00:00 24,2 11,6 18 10 SW 1018,6 40 0,0
14.07.2018 13:00:00 23,8 11,8 18 10 WSW 1018,9 50 0,0
14.07.2018 12:00:00 22,9 11,7 11 6 SW 1019,3 40 0,0
14.07.2018 11:00:00 20,9 11,1 4 2 WNW 1019,8 22 0,0
14.07.2018 10:00:00 19,2 11,2 11 6 W 1020,1 35 0,0
14.07.2018 09:00:00 17,7 11,7 8 4 W 1020,5 30 0,0
14.07.2018 08:00:00 16,6 12,0 8 4 SW 1020,7 35 0,0
14.07.2018 07:00:00 14,4 13,0 8 4 S 1020,5 21 0,0
14.07.2018 06:00:00 12,3 11,3 8 4 SSE 1020,5 25 0,0
14.07.2018 05:00:00 13,1 12,0 5 3 SSE 1020,7 50 0,0
14.07.2018 04:00:00 12,8 11,4 11 6 SE 1020,8 50 0,0
14.07.2018 03:00:00 11,8 10,5 13 7 SE 1021,0 45 0,0
14.07.2018 02:00:00 11,7 10,2 13 7 ESE 1021,1 45 0,0
14.07.2018 01:00:00 13,8 11,3 5 3 ESE 1021,3 50 0,0
14.07.2018 00:00:00 15,4 11,7 13 7 SE 1021,3 50 0,0
13.07.2018 23:00:00 17,7 12,9 15 8 SE 1021,5 50 0,0
13.07.2018 22:00:00 18,7 13,8 8 4 SSE 1021,2 18 0,0
13.07.2018 21:00:00 19,6 13,8 8 4 SSE 1020,7 21 0,0
13.07.2018 20:00:00 20,9 13,8 11 6 S 1020,7 13 0,0
13.07.2018 19:00:00 20,9 13,7 11 6 SSE 1020,9 17 0,0
13.07.2018 18:00:00 21,1 14,3 11 6 S 1021,3 19 0,0
13.07.2018 17:00:00 20,8 15,0 13 7 S 1021,7 11 0,0
13.07.2018 16:00:00 18,6 16,0 9 5 SSE 1022,4 9 0,2
13.07.2018 15:00:00 15,9 14,9 9 5 SSW 1023,2 4,6 0,2
13.07.2018 14:00:00 16,4 14,5 13 7 SW 1023,3 7 0,0
13.07.2018 13:00:00 18,2 13,0 15 8 SSW 1023,3 20 0,0
13.07.2018 12:00:00 18,2 12,5 15 8 S 1023,5 30 0,0
13.07.2018 11:00:00 17,4 12,9 13 7 S 1023,4 29 0,0
13.07.2018 10:00:00 17,2 12,6 9 5 S 1023,4 45 0,0
13.07.2018 09:00:00 16,3 12,4 5 3 S 1023,4 40 0,0
13.07.2018 08:00:00 15,5 12,4 9 5 SE 1023,4 50 0,0
13.07.2018 07:00:00 15,0 12,5 8 4 ESE 1023,5 40 0,0
13.07.2018 06:00:00 14,8 12,9 8 4 SE 1023,4 25 0,0
13.07.2018 05:00:00 14,5 12,5 8 4 ESE 1023,5 45 0,0
13.07.2018 04:00:00 14,6 12,6 5 3 SE 1023,4 11 0,0
13.07.2018 03:00:00 14,1 11,9 5 3 ESE 1023,5 50 0,0
13.07.2018 02:00:00 14,9 12,2 5 3 SSE 1023,8 50 0,0
13.07.2018 01:00:00 15,3 12,5 8 4 SE 1023,8 45 0,0
13.07.2018 00:00:00 15,5 12,7 9 5 SE 1023,8 50 0,0
12.07.2018 23:00:00 16,9 12,9 5 3 SSE 1023,7 50 0,0
12.07.2018 22:00:00 17,4 12,8 11 6 E 1023,3 50 0,0
12.07.2018 21:00:00 18,4 12,7 11 6 E 1022,8 50 0,0
12.07.2018 20:00:00 19,4 12,9 13 7 E 1022,4 50 0,0
12.07.2018 19:00:00 20,4 12,5 13 7 E 1022,1 45 0,0
12.07.2018 18:00:00 21,3 12,4 9 5 E 1022,0 35 0,0
12.07.2018 17:00:00 21,5 12,3 11 6 SE 1022,3 10 0,0
12.07.2018 16:00:00 20,5 11,9 9 5 NE 1022,7 10 0,0
12.07.2018 15:00:00 20,3 12,1 9 5 NE 1022,9 10 0,0
12.07.2018 14:00:00 19,9 11,4 5 3 S 1023,2 10 0,0
12.07.2018 13:00:00 19,0 11,4 11 6 N 1023,4 10 0,0
12.07.2018 12:00:00 18,0 11,7 8 4 NNW 1023,6 10 0,0
12.07.2018 11:00:00 17,1 11,5 8 4 N 1023,5 10 0,0
12.07.2018 10:00:00 16,6 11,5 8 4 N 1023,4 10 0,0
12.07.2018 09:00:00 15,8 11,6 8 4 N 1023,5 10 0,0
12.07.2018 08:00:00 15,2 11,6 8 4 NNW 1023,4 30 0,0
12.07.2018 07:00:00 14,6 11,6 9 5 NNW 1023,0 29 0,0
12.07.2018 06:00:00 14,5 11,6 9 5 NNW 1023,2 30 0,0
12.07.2018 05:00:00 14,4 11,7 8 4 NNW 1023,1 30 0,0
12.07.2018 04:00:00 14,2 11,9 8 4 N 1023,1 29 0,0
12.07.2018 03:00:00 14,1 11,8 5 3 NNW 1023,1 30 0,0
12.07.2018 02:00:00 13,8 11,6 5 3 N 1023,2 45 0,0
12.07.2018 01:00:00 12,8 11,1 8 4 NNE 1023,2 45 0,0
12.07.2018 00:00:00 14,1 11,3 8 4 NW 1023,3 50 0,0
11.07.2018 23:00:00 14,9 11,5 8 4 NNW 1023,2 45 0,0
11.07.2018 22:00:00 15,5 11,8 11 6 NW 1023,0 45 0,0
11.07.2018 21:00:00 17,0 12,1 13 7 N 1022,5 50 0,0
11.07.2018 20:00:00 18,8 12,2 21 11 N 1022,0 50 0,0
11.07.2018 19:00:00 20,5 12,7 21 11 N 1021,6 50 0,0
11.07.2018 18:00:00 21,6 12,5 18 10 N 1021,3 35 0,0
11.07.2018 17:00:00 22,9 12,8 21 11 N 1021,4 50 0,0
11.07.2018 16:00:00 22,6 12,1 13 7 NNW 1021,6 10 0,0
11.07.2018 15:00:00 22,0 12,2 13 7 N 1022,1 10 0,0
11.07.2018 14:00:00 20,9 11,6 9 5 N 1022,5 10 0,0
11.07.2018 13:00:00 20,0 11,3 13 7 N 1022,8 10 0,0
11.07.2018 12:00:00 19,2 11,5 9 5 N 1023,2 10 0,0
11.07.2018 11:00:00 17,7 10,8 13 7 N 1023,6 10 0,0
11.07.2018 10:00:00 16,5 11,3 11 6 N 1023,9 40 0,0
11.07.2018 09:00:00 15,9 11,1 5 3 N 1024,0 10 0,0
11.07.2018 08:00:00 14,4 10,7 5 3 N 1024,1 10 0,0
11.07.2018 07:00:00 12,4 10,6 11 6 NNW 1024,1 23 0,0
11.07.2018 06:00:00 11,2 9,9 8 4 N 1024,0 14 0,0
11.07.2018 05:00:00 9,6 8,7 5 3 N 1024,0 10 0,0
11.07.2018 04:00:00 10,7 9,5 8 4 NNW 1024,2 17 0,0
11.07.2018 03:00:00 11,0 9,6 9 5 NNW 1024,5 17 0,0
11.07.2018 02:00:00 11,8 9,8 8 4 NW 1024,8 30 0,0
11.07.2018 01:00:00 11,0 8,7 9 5 NNW 1024,9 21 0,0
11.07.2018 00:00:00 12,7 10,0 9 5 NW 1025,3 45 0,0
10.07.2018 23:00:00 13,4 10,1 11 6 NNW 1025,4 50 0,0
10.07.2018 22:00:00 14,5 9,8 9 5 NNW 1025,3 45 0,0
10.07.2018 21:00:00 15,4 9,6 11 6 NNE 1025,0 50 0,0
10.07.2018 20:00:00 - - - - - - - -
10.07.2018 19:00:00 18,0 10,2 16 9 NNE 1024,8 30 0,0
10.07.2018 18:00:00 18,7 9,7 22 12 NNE 1024,7 30 0,0
10.07.2018 17:00:00 19,8 9,6 18 10 NNE 1024,9 30 0,0
10.07.2018 16:00:00 18,9 8,8 16 9 N 1025,2 10 0,0
10.07.2018 15:00:00 18,9 8,4 16 9 N 1025,5 10 0,0
10.07.2018 14:00:00 19,6 9,7 18 10 N 1025,8 10 0,0
10.07.2018 13:00:00 17,8 9,0 22 12 N 1026,1 10 0,0
10.07.2018 12:00:00 17,3 8,3 22 12 N 1026,1 10 0,0
10.07.2018 11:00:00 16,4 8,0 21 11 NNE 1026,4 10 0,0
10.07.2018 10:00:00 17,3 8,0 24 13 NNE 1026,2 10 0,0
10.07.2018 09:00:00 16,0 9,3 18 10 N 1026,3 30 0,0
10.07.2018 08:00:00 15,0 10,1 16 9 N 1026,6 30 0,0
10.07.2018 07:00:00 14,8 10,2 16 9 N 1026,6 35 0,0
10.07.2018 06:00:00 13,8 9,7 15 8 NNW 1026,7 50 0,0
10.07.2018 05:00:00 13,6 9,9 13 7 NNW 1026,8 50 0,0
10.07.2018 04:00:00 13,5 10,4 11 6 NNW 1027,0 50 0,0
10.07.2018 03:00:00 13,3 10,5 11 6 NNW 1027,0 40 0,0
10.07.2018 02:00:00 12,8 10,5 9 5 NNW 1027,5 45 0,0
10.07.2018 01:00:00 12,9 10,3 9 5 N 1027,8 45 0,0
10.07.2018 00:00:00 14,0 11,1 9 5 NNW 1028,0 27 0,0
09.07.2018 23:00:00 13,9 10,7 5 3 NNW 1027,8 50 0,0
09.07.2018 22:00:00 14,8 11,2 13 7 NNE 1027,9 40 0,0
09.07.2018 21:00:00 15,9 11,4 15 8 N 1027,5 45 0,0
09.07.2018 20:00:00 16,6 11,9 13 7 NNE 1027,4 45 0,0

tt = temperature
td = dewpoint
ff = wind speed
dd = wind direction
ppp = reduced air pressure
vv = visibility
rr = precipitation

Next stations